Time,TemperatureF,DewpointF,PressureIn,WindDirection,WindDirectionDegrees,WindSpeedMPH,WindSpeedGustMPH,Humidity,HourlyPrecipIn,Conditions,Clouds,dailyrainin,SoftwareType,DateUTC
2013-06-13 00:04:00,69.9,52.0,29.75,NNE,12,0.0,0.0,54,0.00,,,0.00,weatherlink.com 1.10,2013-06-13 04:04:00,
2013-06-13 00:19:00,69.2,53.0,29.75,North,11,0.0,0.0,56,0.00,,,0.00,weatherlink.com 1.10,2013-06-13 04:19:00,
2013-06-13 00:34:00,69.2,52.0,29.76,NNE,12,0.0,0.0,55,0.00,,,0.00,weatherlink.com 1.10,2013-06-13 04:34:00,
2013-06-13 00:49:00,69.0,52.0,29.76,NNE,12,0.0,0.0,56,0.00,,,0.00,weatherlink.com 1.10,2013-06-13 04:49:00,
2013-06-13 01:04:00,69.2,53.0,29.76,NNE,12,0.0,0.0,56,0.00,,,0.00,weatherlink.com 1.10,2013-06-13 05:04:00,
2013-06-13 01:19:00,69.3,53.0,29.75,NNE,12,0.0,0.0,56,0.00,,,0.00,weatherlink.com 1.10,2013-06-13 05:19:00,
2013-06-13 01:34:00,68.9,53.0,29.74,NNE,12,0.0,0.0,58,0.00,,,0.00,weatherlink.com 1.10,2013-06-13 05:34:00,
2013-06-13 01:49:00,68.3,54.0,29.74,NNE,18,0.0,1.0,60,0.00,,,0.00,weatherlink.com 1.10,2013-06-13 05:49:00,
2013-06-13 02:04:00,67.9,54.0,29.74,SSW,205,0.0,1.0,62,0.00,,,0.00,weatherlink.com 1.10,2013-06-13 06:04:00,
2013-06-13 02:19:00,67.7,55.0,29.73,SSE,158,1.0,2.0,63,0.00,,,0.00,weatherlink.com 1.10,2013-06-13 06:19:00,
2013-06-13 02:34:00,67.4,55.0,29.73,SW,231,0.0,3.0,64,0.00,,,0.00,weatherlink.com 1.10,2013-06-13 06:34:00,
2013-06-13 02:49:00,67.3,55.0,29.73,SSE,163,2.0,4.0,65,0.00,,,0.00,weatherlink.com 1.10,2013-06-13 06:49:00,
2013-06-13 03:04:00,67.2,55.0,29.72,SW,214,0.0,1.0,66,0.00,,,0.00,weatherlink.com 1.10,2013-06-13 07:04:00,
2013-06-13 03:19:00,67.2,55.0,29.73,SSE,153,0.0,1.0,66,0.00,,,0.00,weatherlink.com 1.10,2013-06-13 07:19:00,
2013-06-13 03:34:00,67.4,56.0,29.73,SSW,198,2.0,3.0,66,0.00,,,0.00,weatherlink.com 1.10,2013-06-13 07:34:00,
2013-06-13 03:50:00,67.3,55.0,29.73,South,172,1.0,3.0,65,0.00,,,0.00,weatherlink.com 1.10,2013-06-13 07:50:00,
2013-06-13 04:05:00,67.5,55.0,29.73,SSE,149,1.0,4.0,65,0.00,,,0.00,weatherlink.com 1.10,2013-06-13 08:05:00,
2013-06-13 04:20:00,67.9,56.0,29.73,SSE,158,4.0,4.0,65,0.00,,,0.00,weatherlink.com 1.10,2013-06-13 08:20:00,
2013-06-13 04:35:00,68.2,55.0,29.72,South,181,4.0,4.0,64,0.00,,,0.00,weatherlink.com 1.10,2013-06-13 08:35:00,
2013-06-13 04:50:00,68.1,56.0,29.71,South,191,0.0,2.0,65,0.00,,,0.00,weatherlink.com 1.10,2013-06-13 08:50:00,
2013-06-13 05:05:00,68.2,56.0,29.71,SSW,212,0.0,1.0,65,0.00,,,0.00,weatherlink.com 1.10,2013-06-13 09:05:00,
2013-06-13 05:20:00,68.1,56.0,29.71,SSW,193,0.0,3.0,65,0.00,,,0.00,weatherlink.com 1.10,2013-06-13 09:20:00,
2013-06-13 05:35:00,68.3,56.0,29.71,SSW,212,1.0,3.0,64,0.00,,,0.00,weatherlink.com 1.10,2013-06-13 09:35:00,
2013-06-13 05:50:00,68.4,55.0,29.72,SSE,165,2.0,5.0,62,0.00,,,0.00,weatherlink.com 1.10,2013-06-13 09:50:00,
2013-06-13 06:05:00,74.3,55.0,29.72,SE,142,2.0,5.0,51,0.00,,,0.00,weatherlink.com 1.10,2013-06-13 10:05:00,
2013-06-13 06:20:00,74.8,55.0,29.71,SSE,150,2.0,5.0,51,0.00,,,0.00,weatherlink.com 1.10,2013-06-13 10:20:00,
2013-06-13 06:35:00,77.4,56.0,29.69,SE,145,2.0,4.0,47,0.00,,,0.00,weatherlink.com 1.10,2013-06-13 10:35:00,
2013-06-13 06:50:00,70.8,55.0,29.68,West,262,0.0,5.0,58,0.00,,,0.00,weatherlink.com 1.10,2013-06-13 10:50:00,
2013-06-13 07:05:00,72.8,57.0,29.68,SSE,165,2.0,4.0,57,0.00,,,0.00,weatherlink.com 1.10,2013-06-13 11:05:00,
2013-06-13 07:20:00,71.1,56.0,29.68,West,279,1.0,2.0,60,0.00,,,0.00,weatherlink.com 1.10,2013-06-13 11:20:00,
2013-06-13 07:35:00,68.6,57.0,29.67,SSE,162,0.0,2.0,67,0.00,,,0.00,weatherlink.com 1.10,2013-06-13 11:35:00,
2013-06-13 07:50:00,71.0,57.0,29.68,SSE,155,1.0,3.0,62,0.00,,,0.00,weatherlink.com 1.10,2013-06-13 11:50:00,
2013-06-13 08:05:00,67.7,59.0,29.67,NNW,336,0.0,4.0,74,0.01,,,0.01,weatherlink.com 1.10,2013-06-13 12:05:00,
2013-06-13 08:20:00,68.6,59.0,29.67,SE,145,2.0,3.0,72,0.02,,,0.02,weatherlink.com 1.10,2013-06-13 12:20:00,
2013-06-13 08:35:00,67.4,58.0,29.68,West,264,0.0,5.0,72,0.02,,,0.02,weatherlink.com 1.10,2013-06-13 12:35:00,
2013-06-13 08:50:00,66.3,58.0,29.67,West,274,0.0,1.0,75,0.02,,,0.02,weatherlink.com 1.10,2013-06-13 12:50:00,
2013-06-13 09:05:00,72.6,59.0,29.66,South,176,1.0,4.0,62,0.01,,,0.02,weatherlink.com 1.10,2013-06-13 13:05:00,
2013-06-13 09:20:00,67.6,57.0,29.65,SE,126,0.0,3.0,68,0.00,,,0.02,weatherlink.com 1.10,2013-06-13 13:20:00,
2013-06-13 09:35:00,70.8,59.0,29.64,SSE,160,0.0,3.0,66,0.00,,,0.02,weatherlink.com 1.10,2013-06-13 13:35:00,
2013-06-13 09:50:00,67.8,57.0,29.65,South,186,1.0,3.0,69,0.00,,,0.02,weatherlink.com 1.10,2013-06-13 13:50:00,
2013-06-13 10:05:00,66.9,60.0,29.64,SE,141,3.0,3.0,79,0.05,,,0.07,weatherlink.com 1.10,2013-06-13 14:05:00,
2013-06-13 10:20:00,69.2,59.0,29.64,SSW,205,0.0,4.0,70,0.06,,,0.08,weatherlink.com 1.10,2013-06-13 14:20:00,
2013-06-13 10:35:00,65.6,59.0,29.63,SW,219,0.0,3.0,80,0.11,,,0.13,weatherlink.com 1.10,2013-06-13 14:35:00,
2013-06-13 10:50:00,70.2,60.0,29.60,East,101,1.0,6.0,70,0.12,,,0.14,weatherlink.com 1.10,2013-06-13 14:50:00,
2013-06-13 11:05:00,64.3,58.0,29.59,ESE,113,0.0,3.0,80,0.14,,,0.21,weatherlink.com 1.10,2013-06-13 15:05:00,
2013-06-13 11:20:00,65.3,60.0,29.66,SSE,153,1.0,4.0,82,0.21,,,0.29,weatherlink.com 1.10,2013-06-13 15:20:00,
2013-06-13 11:35:00,63.9,58.0,29.58,West,260,2.0,8.0,81,0.19,,,0.32,weatherlink.com 1.10,2013-06-13 15:35:00,
2013-06-13 11:50:00,63.0,58.0,29.59,NW,319,2.0,4.0,84,0.18,,,0.32,weatherlink.com 1.10,2013-06-13 15:50:00,
2013-06-13 12:05:00,66.2,59.0,29.60,SSW,211,0.0,4.0,77,0.11,,,0.32,weatherlink.com 1.10,2013-06-13 16:05:00,
2013-06-13 12:20:00,63.6,57.0,29.59,SW,236,2.0,7.0,80,0.03,,,0.32,weatherlink.com 1.10,2013-06-13 16:20:00,
2013-06-13 12:36:00,66.6,58.0,29.53,WNW,284,1.0,6.0,74,0.00,,,0.32,weatherlink.com 1.10,2013-06-13 16:36:00,
2013-06-13 12:51:00,64.5,58.0,29.55,NNW,332,2.0,7.0,78,0.00,,,0.32,weatherlink.com 1.10,2013-06-13 16:51:00,
2013-06-13 13:06:00,68.3,58.0,29.55,SW,218,1.0,5.0,70,0.00,,,0.32,weatherlink.com 1.10,2013-06-13 17:06:00,
2013-06-13 13:21:00,65.6,57.0,29.54,NW,323,1.0,6.0,73,0.00,,,0.32,weatherlink.com 1.10,2013-06-13 17:21:00,
2013-06-13 13:36:00,67.1,58.0,29.53,SSE,165,2.0,5.0,72,0.00,,,0.32,weatherlink.com 1.10,2013-06-13 17:36:00,
2013-06-13 13:51:00,65.6,57.0,29.53,SE,133,1.0,8.0,74,0.00,,,0.32,weatherlink.com 1.10,2013-06-13 17:51:00,
2013-06-13 14:06:00,64.3,57.0,29.52,SSE,150,2.0,6.0,78,0.00,,,0.32,weatherlink.com 1.10,2013-06-13 18:06:00,
2013-06-13 14:21:00,65.9,58.0,29.52,SW,226,1.0,11.0,75,0.00,,,0.32,weatherlink.com 1.10,2013-06-13 18:21:00,
2013-06-13 14:36:00,63.7,57.0,29.51,South,176,1.0,9.0,80,0.00,,,0.32,weatherlink.com 1.10,2013-06-13 18:36:00,
2013-06-13 14:51:00,66.0,58.0,29.50,ESE,110,1.0,6.0,75,0.00,,,0.32,weatherlink.com 1.10,2013-06-13 18:51:00,
2013-06-13 15:06:00,64.0,58.0,29.50,South,172,0.0,5.0,80,0.00,,,0.32,weatherlink.com 1.10,2013-06-13 19:06:00,
2013-06-13 15:21:00,68.8,59.0,29.50,SE,131,1.0,4.0,71,0.00,,,0.32,weatherlink.com 1.10,2013-06-13 19:21:00,
2013-06-13 15:36:00,64.5,58.0,29.50,SE,128,0.0,8.0,79,0.00,,,0.32,weatherlink.com 1.10,2013-06-13 19:36:00,
2013-06-13 15:51:00,67.3,59.0,29.50,SE,134,3.0,5.0,75,0.00,,,0.32,weatherlink.com 1.10,2013-06-13 19:51:00,
2013-06-13 16:06:00,65.1,58.0,29.49,SE,138,0.0,3.0,79,0.00,,,0.32,weatherlink.com 1.10,2013-06-13 20:06:00,
2013-06-13 16:21:00,68.3,60.0,29.48,SSE,162,3.0,4.0,75,0.00,,,0.32,weatherlink.com 1.10,2013-06-13 20:21:00,
2013-06-13 16:36:00,67.9,60.0,29.45,North,8,3.0,5.0,76,0.00,,,0.32,weatherlink.com 1.10,2013-06-13 20:36:00,
2013-06-13 16:51:00,68.7,61.0,29.44,SSE,152,1.0,7.0,77,0.00,,,0.32,weatherlink.com 1.10,2013-06-13 20:51:00,
2013-06-13 17:06:00,68.2,61.0,29.43,West,269,2.0,4.0,77,0.00,,,0.32,weatherlink.com 1.10,2013-06-13 21:06:00,
2013-06-13 17:21:00,68.0,61.0,29.42,WNW,290,3.0,3.0,79,0.00,,,0.32,weatherlink.com 1.10,2013-06-13 21:21:00,
2013-06-13 17:36:00,68.8,61.0,29.41,WNW,300,1.0,6.0,76,0.00,,,0.32,weatherlink.com 1.10,2013-06-13 21:36:00,
2013-06-13 17:51:00,66.5,60.0,29.43,West,266,0.0,4.0,80,0.00,,,0.32,weatherlink.com 1.10,2013-06-13 21:51:00,
2013-06-13 18:06:00,69.9,61.0,29.40,East,93,6.0,6.0,73,0.00,,,0.32,weatherlink.com 1.10,2013-06-13 22:06:00,
2013-06-13 18:21:00,66.2,60.0,29.39,SE,129,1.0,7.0,80,0.00,,,0.32,weatherlink.com 1.10,2013-06-13 22:21:00,
2013-06-13 18:36:00,70.7,62.0,29.39,SSE,155,2.0,11.0,73,0.00,,,0.32,weatherlink.com 1.10,2013-06-13 22:36:00,
2013-06-13 18:51:00,66.0,60.0,29.40,WNW,302,1.0,5.0,82,0.00,,,0.32,weatherlink.com 1.10,2013-06-13 22:51:00,
2013-06-13 19:06:00,66.7,61.0,29.40,SSE,158,2.0,5.0,82,0.00,,,0.32,weatherlink.com 1.10,2013-06-13 23:06:00,
2013-06-13 19:21:00,65.9,61.0,29.40,SE,128,1.0,6.0,83,0.01,,,0.33,weatherlink.com 1.10,2013-06-13 23:21:00,
2013-06-13 19:36:00,64.0,60.0,29.39,NW,309,1.0,4.0,88,0.04,,,0.36,weatherlink.com 1.10,2013-06-13 23:36:00,
2013-06-13 19:51:00,63.3,60.0,29.38,SE,139,2.0,7.0,90,0.09,,,0.41,weatherlink.com 1.10,2013-06-13 23:51:00,
2013-06-13 20:06:00,64.0,60.0,29.41,NNW,343,2.0,8.0,88,0.19,,,0.51,weatherlink.com 1.10,2013-06-14 00:06:00,
2013-06-13 20:21:00,62.3,60.0,29.43,NW,326,2.0,6.0,92,0.39,,,0.72,weatherlink.com 1.10,2013-06-14 00:21:00,
2013-06-13 20:36:00,61.4,59.0,29.42,NNW,337,3.0,9.0,92,0.47,,,0.83,weatherlink.com 1.10,2013-06-14 00:36:00,
2013-06-13 20:51:00,60.7,59.0,29.40,NNW,347,4.0,15.0,93,0.43,,,0.84,weatherlink.com 1.10,2013-06-14 00:51:00,
2013-06-13 21:06:00,60.0,58.0,29.40,North,349,4.0,14.0,93,0.37,,,0.88,weatherlink.com 1.10,2013-06-14 01:06:00,
2013-06-13 21:21:00,59.1,57.0,29.41,South,169,5.0,17.0,93,0.19,,,0.91,weatherlink.com 1.10,2013-06-14 01:21:00,
2013-06-13 21:36:00,58.6,57.0,29.42,North,10,6.0,14.0,93,0.13,,,0.96,weatherlink.com 1.10,2013-06-14 01:36:00,
2013-06-13 21:52:00,58.3,56.0,29.43,North,8,8.0,20.0,93,0.14,,,0.98,weatherlink.com 1.10,2013-06-14 01:52:00,
2013-06-13 22:07:00,58.1,56.0,29.42,North,351,6.0,15.0,93,0.10,,,0.98,weatherlink.com 1.10,2013-06-14 02:07:00,
2013-06-13 22:22:00,58.0,56.0,29.41,NNE,23,7.0,18.0,93,0.07,,,0.99,weatherlink.com 1.10,2013-06-14 02:22:00,
2013-06-13 22:37:00,57.8,56.0,29.41,NNE,23,4.0,13.0,93,0.04,,,1.00,weatherlink.com 1.10,2013-06-14 02:37:00,
2013-06-13 22:52:00,57.6,56.0,29.40,NNW,330,5.0,16.0,93,0.04,,,1.02,weatherlink.com 1.10,2013-06-14 02:52:00,
2013-06-13 23:07:00,57.3,55.0,29.41,NNE,30,4.0,20.0,93,0.08,,,1.06,weatherlink.com 1.10,2013-06-14 03:07:00,
2013-06-13 23:22:00,56.8,55.0,29.41,NW,323,2.0,19.0,92,0.11,,,1.10,weatherlink.com 1.10,2013-06-14 03:22:00,
2013-06-13 23:37:00,56.7,55.0,29.42,West,260,8.0,14.0,93,0.12,,,1.12,weatherlink.com 1.10,2013-06-14 03:37:00,
2013-06-13 23:52:00,56.4,54.0,29.43,SE,135,6.0,14.0,92,0.12,,,1.14,weatherlink.com 1.10,2013-06-14 03:52:00,